Total_Precipitation_Accumulation
0.00 0.00 0.00 0.00 0.00 0.00 0.00 0.00 0.00 0.00 0.00 0.00 0.00 0.00 0.00 0.00 0.00 0.00 0.00 0.00 0.01 0.01 0.01 0.01 0.02 0.01 0.01 0.01 0.01 0.01 0.00 0.00 0.01 0.01 0.02 0.03 0.04 0.05 0.06 0.07 0.16 0.19 0.09
0.00 0.00 0.00 0.00 0.00 0.00 0.00 0.00 0.00 0.00 0.00 0.00 0.00 0.00 0.00 0.00 0.00 0.00 0.00 0.01 0.01 0.01 0.01 0.02 0.01 0.01 0.01 0.01 0.01 0.00 0.00 0.01 0.01 0.01 0.02 0.03 0.05 0.05 0.04 0.05 0.16 0.16 0.07
0.00 0.00 0.00 0.00 0.00 0.00 0.00 0.00 0.00 0.00 0.00 0.00 0.00 0.00 0.00 0.00 0.00 0.00 0.00 0.01 0.01 0.01 0.02 0.02 0.02 0.01 0.01 0.00 0.00 0.00 0.00 0.01 0.01 0.02 0.07 0.08 0.03 0.04 0.05 0.06 0.09 0.05 0.03
0.00 0.00 0.00 0.00 0.00 0.00 0.00 0.00 0.00 0.00 0.00 0.00 0.00 0.00 0.00 0.00 0.00 0.01 0.01 0.01 0.01 0.02 0.02 0.02 0.02 0.01 0.01 0.00 0.00 0.00 0.01 0.01 0.01 0.03 0.19 0.19 0.04 0.03 0.02 0.02 0.02 0.02 0.02
0.00 0.00 0.00 0.00 0.00 0.00 0.00 0.00 0.00 0.00 0.00 0.01 0.01 0.01 0.01 0.01 0.01 0.01 0.01 0.01 0.01 0.02 0.02 0.02 0.02 0.01 0.00 0.00 0.00 0.00 0.00 0.01 0.01 0.04 0.14 0.22 0.19 0.06 0.03 0.01 0.01 0.01 0.02
0.00 0.00 0.00 0.00 0.00 0.00 0.00 0.00 0.00 0.00 0.00 0.00 0.01 0.01 0.01 0.01 0.01 0.01 0.01 0.01 0.02 0.02 0.02 0.02 0.01 0.01 0.00 0.00 0.00 0.00 0.00 0.00 0.01 0.03 0.06 0.10 0.20 0.13 0.08 0.07 0.02 0.01 0.01
0.00 0.00 0.00 0.00 0.00 0.00 0.00 0.00 0.00 0.00 0.00 0.00 0.00 0.01 0.01 0.01 0.01 0.02 0.02 0.02 0.02 0.02 0.02 0.02 0.01 0.01 0.01 0.00 0.00 0.00 0.00 0.00 0.02 0.06 0.05 0.07 0.18 0.12 0.23 0.34 0.22 0.14 0.08
0.00 0.00 0.01 0.01 0.01 0.00 0.00 0.00 0.00 0.00 0.00 0.00 0.00 0.00 0.01 0.01 0.01 0.01 0.01 0.02 0.02 0.02 0.02 0.01 0.01 0.01 0.00 0.00 0.01 0.01 0.03 0.03 0.04 0.08 0.06 0.10 0.11 0.10 0.36 0.54 0.47 0.42 0.32
0.00 0.00 0.01 0.01 0.01 0.01 0.01 0.00 0.00 0.00 0.01 0.00 0.00 0.00 0.00 0.00 0.01 0.01 0.01 0.01 0.01 0.02 0.02 0.01 0.01 0.01 0.01 0.01 0.02 0.02 0.05 0.06 0.05 0.09 0.05 0.07 0.09 0.14 0.37 0.51 0.50 0.51 0.45
0.01 0.01 0.02 0.02 0.02 0.02 0.02 0.02 0.01 0.01 0.01 0.01 0.01 0.01 0.01 0.00 0.00 0.01 0.01 0.01 0.01 0.02 0.02 0.02 0.01 0.01 0.01 0.02 0.02 0.03 0.05 0.04 0.01 0.03 0.02 0.04 0.09 0.25 0.45 0.51 0.58 0.62 0.55
0.01 0.02 0.02 0.03 0.03 0.03 0.03 0.04 0.06 0.06 0.05 0.04 0.03 0.03 0.02 0.01 0.01 0.02 0.03 0.05 0.07 0.09 0.10 0.09 0.09 0.09 0.10 0.07 0.06 0.14 0.13 0.03 0.02 0.03 0.03 0.04 0.10 0.25 0.43 0.56 0.63 0.62 0.64
0.01 0.02 0.02 0.02 0.03 0.04 0.05 0.08 0.14 0.15 0.19 0.16 0.15 0.18 0.16 0.13 0.08 0.04 0.10 0.20 0.23 0.31 0.32 0.38 0.52 0.45 0.34 0.22 0.32 0.57 0.25 0.12 0.12 0.13 0.13 0.10 0.19 0.35 0.43 0.49 0.54 0.52 0.55
0.04 0.04 0.04 0.03 0.03 0.05 0.07 0.07 0.11 0.15 0.27 0.30 0.29 0.41 0.50 0.47 0.32 0.20 0.29 0.42 0.48 0.58 0.60 0.84 1.01 0.63 0.55 0.59 0.67 0.71 0.47 0.38 0.34 0.43 0.42 0.49 0.53 0.59 0.58 0.55 0.55 0.54 0.55
0.11 0.12 0.14 0.12 0.07 0.07 0.08 0.09 0.09 0.13 0.19 0.27 0.37 0.51 0.68 0.63 0.53 0.51 0.52 0.49 0.62 0.70 0.90 0.92 1.01 1.04 1.11 1.00 0.95 0.96 0.85 0.66 0.56 0.75 0.97 0.98 0.95 0.84 0.84 0.74 0.61 0.60 0.62
0.24 0.30 0.32 0.33 0.27 0.24 0.21 0.18 0.12 0.14 0.17 0.22 0.40 0.53 0.82 1.00 0.95 1.04 0.88 0.81 0.69 0.92 1.21 1.30 1.24 1.39 1.52 1.47 1.19 1.02 1.00 0.87 0.72 0.71 0.82 0.91 0.98 0.87 0.86 0.83 0.68 0.68 0.70
0.41 0.54 0.61 0.67 0.63 0.58 0.50 0.40 0.35 0.33 0.35 0.39 0.56 0.77 1.25 1.41 1.31 1.36 1.30 1.20 0.97 1.07 1.33 1.57 1.51 1.63 1.55 1.54 1.11 0.92 0.91 0.96 0.83 0.72 0.71 0.83 0.84 0.76 0.66 0.71 0.76 0.76 0.74
0.73 0.91 1.07 1.21 1.15 1.09 1.01 0.88 0.75 0.64 0.62 0.73 0.95 1.17 1.46 1.64 1.73 1.91 1.78 1.42 1.23 1.36 1.50 1.48 1.47 1.73 1.47 1.37 1.19 1.19 1.11 0.99 0.87 0.76 0.73 0.75 0.67 0.63 0.52 0.52 0.64 0.71 0.75
1.17 1.53 1.85 2.00 2.02 1.97 1.71 1.44 1.25 1.17 1.14 1.24 1.34 1.32 1.30 1.46 1.64 1.82 1.55 1.22 1.35 1.60 1.67 1.54 1.49 1.71 1.60 1.49 1.38 1.25 1.14 0.96 0.79 0.76 0.71 0.61 0.54 0.39 0.36 0.41 0.54 0.64 0.78
1.63 2.17 2.66 2.86 2.70 2.48 2.00 1.63 1.37 1.43 1.47 1.47 1.40 1.21 1.08 1.01 1.06 1.17 1.00 0.94 1.16 1.40 1.36 1.15 1.21 1.41 1.41 1.37 1.24 0.95 0.78 0.64 0.54 0.54 0.51 0.44 0.47 0.42 0.40 0.37 0.41 0.51 0.67
1.80 2.38 2.82 3.07 2.77 2.30 1.98 1.80 1.53 1.43 1.39 1.37 1.23 1.01 0.83 0.77 0.75 0.83 0.81 0.78 0.86 0.89 0.89 1.01 1.10 1.16 0.98 0.98 0.87 0.63 0.54 0.42 0.38 0.36 0.28 0.25 0.27 0.26 0.24 0.28 0.35 0.34 0.44
2.14 2.79 3.05 2.84 2.23 1.82 1.57 1.44 1.26 1.11 1.01 0.94 0.87 0.77 0.69 0.69 0.64 0.64 0.61 0.62 0.68 0.66 0.64 0.75 0.81 0.73 0.52 0.64 0.65 0.43 0.29 0.22 0.21 0.19 0.17 0.14 0.13 0.12 0.11 0.19 0.24 0.26 0.28
2.22 2.42 2.36 2.01 1.44 1.10 0.89 0.75 0.62 0.54 0.54 0.54 0.51 0.51 0.53 0.54 0.54 0.53 0.50 0.48 0.48 0.50 0.51 0.51 0.58 0.56 0.46 0.52 0.52 0.40 0.23 0.17 0.12 0.06 0.07 0.08 0.07 0.09 0.09 0.13 0.18 0.27 0.31
1.94 1.68 1.28 0.93 0.67 0.57 0.44 0.36 0.27 0.23 0.23 0.24 0.26 0.29 0.32 0.33 0.33 0.33 0.32 0.32 0.33 0.37 0.40 0.44 0.48 0.48 0.41 0.36 0.39 0.40 0.21 0.11 0.10 0.07 0.06 0.07 0.08 0.09 0.12 0.18 0.25 0.34 0.44
1.27 0.87 0.57 0.43 0.35 0.30 0.25 0.24 0.22 0.18 0.18 0.19 0.20 0.22 0.23 0.22 0.23 0.23 0.21 0.21 0.21 0.24 0.31 0.33 0.40 0.48 0.45 0.32 0.28 0.27 0.23 0.20 0.18 0.12 0.09 0.05 0.07 0.09 0.15 0.21 0.30 0.41 0.47
0.52 0.46 0.43 0.35 0.35 0.35 0.29 0.26 0.23 0.19 0.18 0.19 0.20 0.21 0.24 0.25 0.23 0.23 0.22 0.20 0.20 0.20 0.22 0.27 0.33 0.42 0.47 0.40 0.33 0.32 0.33 0.30 0.23 0.19 0.12 0.08 0.11 0.11 0.19 0.30 0.39 0.44 0.47
0.22 0.23 0.24 0.24 0.32 0.38 0.36 0.31 0.28 0.24 0.21 0.19 0.17 0.18 0.20 0.22 0.25 0.25 0.25 0.26 0.26 0.25 0.25 0.24 0.25 0.30 0.41 0.48 0.47 0.43 0.42 0.35 0.24 0.23 0.17 0.13 0.16 0.15 0.29 0.45 0.50 0.55 0.56